Change the Weather History Date:

Tuesday, February 12, 2013

  Actual Average Record
Temperature  
Mean Temperature 57 °F 47 °F  
Max Temperature 63 °F 57 °F 73 °F (2009)
Min Temperature 50 °F 38 °F 22 °F (1955)
Degree Days  
Heating Degree Days 8 18  
Month to date heating degree days 196 221  
Since 1 July heating degree days 1485 1689  
Cooling Degree Days 0 0  
Month to date cooling degree days 0 0  
Year to date cooling degree days 2 0  
Growing Degree Days 7 (Base 50)    
Moisture  
Dew Point 54 °F    
Average Humidity 77    
Maximum Humidity 93    
Minimum Humidity 60    
Precipitation  
Precipitation 0.64 in 0.12 in 1.46 in (2001)
Month to date precipitation 1.96 1.34  
Year to date precipitation 2.60 5.03  
Sea Level Pressure  
Sea Level Pressure 30.02 in    
Wind  
Wind Speed 4 mph (WSW)    
Max Wind Speed 13 mph    
Max Gust Speed 16 mph    
Visibility 9 miles    
Events Rain    
T = Trace of Precipitation, MM = Missing Value Source: NWS Daily Summary

Daily Weather History Graph

Daily Weather History Graph

Search for Another Location

Airport or City:

Trip Planner

Search our weather history database for the weather conditions in past years. The results will help you decide how hot, cold, wet, or windy it might be!

Date:

Astronomy

Feb. 12, 2013 Rise Set
Actual Time 7:02 AM EST 5:56 PM EST
Civil Twilight 6:36 AM EST 6:22 PM EST
Nautical Twilight 6:07 AM EST 6:51 PM EST
Astronomical Twilight 5:38 AM EST 7:20 PM EST
Moon 8:08 AM EST (2/12) 8:43 PM EST (2/12)
Length of Visible Light 11h 45m
Length of Day
10h 54m
Waxing Crescent, 7% of the Moon is Illuminated
Feb 12
Waxing Crescent
Feb 17
First Quarter
Feb 25
Full
Mar 4
Last Quarter
Mar 11
New

Hourly Weather History & Observations

Time (EST) Temp. Dew Point Humidity Pressure Visibility Wind Dir Wind Speed Gust Speed Precip Events Conditions
12:11 AM 59.0 °F 57.2 °F 94% 30.05 in 5.0 mi WSW 5.8 mph - 0.03 in Rain Light Rain
12:53 AM 60.1 °F 57.9 °F 93% 30.03 in 7.0 mi WSW 9.2 mph - 0.10 in Rain Light Rain
1:53 AM 60.1 °F 57.9 °F 93% 30.04 in 9.0 mi WSW 6.9 mph - 0.10 in Rain Light Rain
2:08 AM 60.8 °F 57.2 °F 88% 30.04 in 5.0 mi West 8.1 mph - 0.04 in Rain Rain
2:38 AM 60.8 °F 57.2 °F 88% 30.04 in 6.0 mi West 8.1 mph - 0.12 in Rain Rain
2:50 AM 59.0 °F 57.2 °F 94% 30.01 in 5.0 mi WSW 4.6 mph - 0.15 in Rain Rain
2:53 AM 59.0 °F 57.9 °F 96% 30.01 in 4.0 mi WSW 4.6 mph - 0.16 in Rain Rain
2:55 AM 59.0 °F 57.2 °F 94% 30.01 in 4.0 mi WSW 5.8 mph - 0.00 in Rain Rain
3:02 AM 59.0 °F 57.2 °F 94% 30.02 in 4.0 mi WSW 5.8 mph - 0.03 in Rain Rain
3:13 AM 59.0 °F 57.2 °F 94% 30.01 in 10.0 mi SW 5.8 mph - 0.03 in Rain Light Rain
3:53 AM 59.0 °F 57.0 °F 93% 30.00 in 10.0 mi WSW 4.6 mph - 0.03 in   Overcast
4:00 AM 59.0 °F 57.2 °F 94% 30.00 in 10.0 mi Calm Calm - N/A   Overcast
4:26 AM 59.0 °F 57.2 °F 94% 30.02 in 10.0 mi West 5.8 mph - 0.00 in Rain Light Rain
4:53 AM 59.0 °F 57.0 °F 93% 30.03 in 10.0 mi West 6.9 mph - 0.00 in Rain Light Rain
5:04 AM 59.0 °F 57.2 °F 94% 30.02 in 10.0 mi Variable 6.9 mph - 0.00 in Rain Light Rain
5:12 AM 59.0 °F 55.4 °F 88% 30.03 in 10.0 mi West 6.9 mph - 0.00 in Rain Light Rain
5:53 AM 57.9 °F 55.9 °F 93% 30.03 in 10.0 mi West 4.6 mph - 0.01 in   Overcast
6:53 AM 57.0 °F 55.0 °F 93% 30.04 in 10.0 mi West 4.6 mph - 0.00 in Rain Light Rain
7:53 AM 57.0 °F 54.0 °F 89% 30.05 in 10.0 mi WNW 3.5 mph - 0.00 in   Overcast
8:53 AM 57.0 °F 53.1 °F 87% 30.06 in 10.0 mi West 3.5 mph - 0.00 in   Mostly Cloudy
9:53 AM 57.0 °F 53.1 °F 87% 30.09 in 10.0 mi NW 4.6 mph - N/A   Overcast
10:53 AM 57.0 °F 53.1 °F 87% 30.11 in 10.0 mi WNW 3.5 mph - 0.01 in Rain Light Rain
11:53 AM 57.9 °F 54.0 °F 87% 30.07 in 10.0 mi Variable 3.5 mph - 0.00 in   Mostly Cloudy
12:37 PM 60.8 °F 51.8 °F 72% 30.05 in 10.0 mi NW 4.6 mph - N/A   Mostly Cloudy
12:53 PM 61.0 °F 51.1 °F 70% 30.04 in 10.0 mi Calm Calm - N/A   Mostly Cloudy
1:01 PM 60.8 °F 51.8 °F 72% 30.05 in 10.0 mi Calm Calm - N/A   Overcast
1:53 PM 61.0 °F 46.9 °F 60% 30.03 in 10.0 mi Calm Calm - N/A   Overcast
2:53 PM 59.0 °F 52.0 °F 78% 30.00 in 10.0 mi ESE 5.8 mph - N/A   Scattered Clouds
3:53 PM 59.0 °F 51.1 °F 75% 30.00 in 10.0 mi SE 3.5 mph - N/A   Mostly Cloudy
4:53 PM 57.0 °F 51.1 °F 81% 29.99 in 10.0 mi SSE 5.8 mph - N/A   Clear
5:53 PM 55.9 °F 51.1 °F 84% 29.99 in 10.0 mi SSE 4.6 mph - N/A   Overcast
6:53 PM 55.0 °F 51.1 °F 86% 29.99 in 10.0 mi SSE 3.5 mph - N/A   Scattered Clouds
7:53 PM 55.0 °F 52.0 °F 89% 29.99 in 10.0 mi South 3.5 mph - N/A   Overcast
8:53 PM 54.0 °F 52.0 °F 93% 29.95 in 10.0 mi ESE 3.5 mph - 0.00 in   Overcast
9:53 PM 54.0 °F 52.0 °F 93% 29.94 in 10.0 mi Calm Calm - 0.01 in Rain Light Rain
10:53 PM 53.1 °F 51.1 °F 93% 30.00 in 5.0 mi Calm Calm - 0.09 in Rain Rain
11:53 PM 51.1 °F 46.9 °F 86% 29.96 in 9.0 mi NNE 3.5 mph - 0.13 in Rain Light Rain